Stations météo

réclame
Mon MeteoGroup
Huelva, Espagne (8383): Température de l'air & dewpoint: 17.04.2018 03:00:00 - 23.04.2018 03:00:00 (CEST)Huelva, Espagne (8383): Vitesse du vent: 17.04.2018 03:00:00 - 23.04.2018 03:00:00 (CEST)Huelva, Espagne (8383): Direction du vent: 17.04.2018 03:00:00 - 23.04.2018 03:00:00 (CEST)Huelva, Espagne (8383): reduced air pressure: 17.04.2018 03:00:00 - 23.04.2018 03:00:00 (CEST)Huelva, Espagne (8383): visibility: 17.04.2018 03:00:00 - 23.04.2018 03:00:00 (CEST)Huelva, Espagne (8383): Quantités de précipitations: 17.04.2018 03:00:00 - 23.04.2018 03:00:00 (CEST)
Date & Time tt [°C] td [°C] ff [km/h] ff [knt] dd ppp [hPa] vv [km] rr [mm]
23.04.2018 03:00:00 15,9 14,6 5 3 S 1014,3 7 0,0
23.04.2018 02:00:00 16,5 14,7 9 5 NW 1014,1 6 -
23.04.2018 01:00:00 16,9 14,9 5 3 SSW 1015,4 9 0,0
23.04.2018 00:00:00 17,4 14,1 9 5 NNE 1013,5 13 0,0
22.04.2018 23:00:00 17,5 13,8 9 5 N 1012,5 13 -
22.04.2018 22:00:00 17,7 13,8 5 3 WSW 1013,3 12 0,0
22.04.2018 21:00:00 18,6 14,1 8 4 W 1012,8 10 0,0
22.04.2018 20:00:00 19,6 13,5 9 5 SW 1012,9 14 -
22.04.2018 19:00:00 20,7 14,8 15 8 SW 1012,5 - 0,0
22.04.2018 18:00:00 21,2 14,8 13 7 SSW 1012,7 14 0,0
22.04.2018 17:00:00 21,4 15,2 15 8 S 1012,7 13 -
22.04.2018 16:00:00 21,7 15,3 15 8 S 1012,9 12 0,0
22.04.2018 15:00:00 20,9 15,7 15 8 S 1013,0 11 0,0
22.04.2018 14:00:00 19,4 15,1 15 8 S 1013,3 10 -
22.04.2018 13:00:00 18,5 15,2 16 9 SSE 1013,7 11 0,0
22.04.2018 12:00:00 16,7 15,7 4 2 N 1013,9 12 0,0
22.04.2018 11:00:00 16,0 15,2 4 2 E 1013,7 10 -
22.04.2018 10:00:00 16,0 15,5 4 2 WNW 1013,6 10 0,0
22.04.2018 09:00:00 14,7 14,7 2 1 ESE 1013,7 3,9 0,0
22.04.2018 08:00:00 14,2 14,0 4 2 WNW 1013,2 2,6 -
22.04.2018 07:00:00 14,1 13,8 4 2 WNW 1012,7 2,0 0,0
22.04.2018 06:00:00 14,6 14,4 4 2 NW 1013,1 4,4 0,0
22.04.2018 05:00:00 14,8 14,5 5 3 NW 1013,3 7 -
22.04.2018 04:00:00 15,1 14,8 4 2 WNW 1013,9 3,2 0,0
22.04.2018 03:00:00 15,5 15,2 4 2 ESE 1014,5 3,0 0,4
22.04.2018 02:00:00 15,6 15,1 4 2 S 1014,8 2,3 -
22.04.2018 01:00:00 15,8 14,8 4 2 NNE 1014,7 11 0,2
22.04.2018 00:00:00 15,7 15,2 5 3 W 1014,7 4,2 0,4
21.04.2018 23:00:00 15,6 15,1 5 3 W 1014,8 2,6 -
21.04.2018 22:00:00 15,7 15,2 11 6 W 1014,8 4,8 0,6
21.04.2018 21:00:00 15,8 15,0 8 4 NNE 1014,1 4,9 0,4
21.04.2018 20:00:00 16,2 15,2 16 9 NE 1012,6 7 -
21.04.2018 19:00:00 16,5 15,4 8 4 WNW 1013,1 6 0,6
21.04.2018 18:00:00 17,2 15,0 13 7 WSW 1013,4 7 0,0
21.04.2018 17:00:00 19,7 15,1 24 13 S 1013,9 13 -
21.04.2018 16:00:00 18,5 15,0 13 7 S 1013,7 12 0,4
21.04.2018 15:00:00 17,4 14,7 13 7 E 1014,1 12 0,4
21.04.2018 14:00:00 17,3 14,6 16 9 SE 1015,2 14 -
21.04.2018 13:00:00 16,1 14,5 24 13 E 1013,8 9 4,0
21.04.2018 12:00:00 16,0 14,0 13 7 SE 1016,3 - 1,0
21.04.2018 11:00:00 16,4 14,1 13 7 SSW 1016,1 11 -
21.04.2018 10:00:00 16,6 13,5 11 6 SE 1013,8 18 0,0
21.04.2018 09:00:00 16,7 13,0 16 9 E 1011,4 19 0,0
21.04.2018 08:00:00 15,2 13,7 13 7 ENE 1010,2 15 -
21.04.2018 07:00:00 14,6 14,0 11 6 NE 1011,3 7 0,4
21.04.2018 06:00:00 14,6 14,0 16 9 NE 1012,5 7 2,0
21.04.2018 05:00:00 15,0 14,0 5 3 ENE 1015,1 6 -
21.04.2018 04:00:00 15,5 13,9 11 6 N 1013,7 8 0,2
21.04.2018 03:00:00 15,2 13,6 15 8 NW 1014,1 10 0,0
21.04.2018 02:00:00 16,3 13,0 4 2 SSW 1015,0 9 -
21.04.2018 01:00:00 16,6 11,7 8 4 SW 1015,1 11 0,0
21.04.2018 00:00:00 16,8 12,1 8 4 ESE 1014,5 20 0,0
20.04.2018 23:00:00 16,8 12,5 11 6 E 1014,1 19 -
20.04.2018 22:00:00 17,7 12,6 11 6 E 1014,2 20 0,0
20.04.2018 21:00:00 18,1 12,3 8 4 S 1014,6 19 0,0
20.04.2018 20:00:00 18,5 12,7 18 10 S 1015,0 18 -
20.04.2018 19:00:00 19,3 12,8 26 14 S 1014,8 18 0,0
20.04.2018 18:00:00 19,8 12,5 29 16 S 1014,3 17 0,0
20.04.2018 17:00:00 21,5 12,9 26 14 S 1013,8 18 -
20.04.2018 16:00:00 22,1 12,4 26 14 S 1014,1 19 0,0
20.04.2018 15:00:00 21,7 12,0 18 10 S 1013,9 20 0,0
20.04.2018 14:00:00 22,5 10,6 15 8 ESE 1013,8 12 -
20.04.2018 13:00:00 22,9 11,3 15 8 ESE 1013,7 20 0,0
20.04.2018 12:00:00 20,9 11,0 18 10 E 1013,5 20 0,0
20.04.2018 11:00:00 19,5 11,5 13 7 E 1014,0 10 -
20.04.2018 10:00:00 17,3 10,9 18 10 ENE 1013,0 19 0,0
20.04.2018 09:00:00 15,1 11,3 15 8 ENE 1012,8 19 0,0
20.04.2018 08:00:00 14,2 11,0 13 7 ENE 1012,7 10 -
20.04.2018 07:00:00 14,2 11,0 13 7 E 1012,9 16 0,0
20.04.2018 06:00:00 14,3 10,7 13 7 ENE 1013,0 19 0,0
20.04.2018 05:00:00 13,7 10,5 11 6 ENE 1013,5 20 -
20.04.2018 04:00:00 13,8 10,2 13 7 NE 1014,0 20 0,0
20.04.2018 03:00:00 15,4 9,7 9 5 ENE 1015,0 20 0,0
20.04.2018 02:00:00 16,2 9,8 8 4 E 1015,9 20 -
20.04.2018 01:00:00 16,0 11,0 5 3 ENE 1016,0 20 0,0
20.04.2018 00:00:00 16,5 11,8 5 3 NE 1015,6 20 0,0
19.04.2018 23:00:00 17,9 11,5 4 2 E 1015,7 20 -
19.04.2018 22:00:00 19,3 11,3 8 4 SSW 1015,3 20 0,0
19.04.2018 21:00:00 21,4 10,8 5 3 S 1014,9 20 0,0
19.04.2018 20:00:00 22,8 10,2 11 6 S 1014,8 20 -
19.04.2018 19:00:00 24,2 11,2 13 7 SSW 1014,9 20 0,0
19.04.2018 18:00:00 24,6 9,7 13 7 SW 1014,8 20 0,0
19.04.2018 17:00:00 25,5 11,3 16 9 SSW 1015,3 20 -
19.04.2018 16:00:00 26,2 8,2 9 5 ENE 1015,9 20 0,0
19.04.2018 15:00:00 25,5 8,5 11 6 E 1016,5 20 0,0
19.04.2018 14:00:00 24,2 8,2 13 7 E 1017,3 25 -
19.04.2018 13:00:00 23,1 9,5 11 6 E 1017,8 20 0,0
19.04.2018 12:00:00 21,6 9,8 11 6 ENE 1018,1 20 0,0
19.04.2018 11:00:00 19,4 10,7 13 7 NE 1018,3 18 -
19.04.2018 10:00:00 16,6 9,8 11 6 ENE 1018,7 20 0,0
19.04.2018 09:00:00 14,0 8,6 11 6 NE 1018,9 18 0,0
19.04.2018 08:00:00 11,7 8,7 11 6 NE 1018,6 15 -
19.04.2018 07:00:00 11,5 9,1 9 5 NNE 1018,6 20 0,0
19.04.2018 06:00:00 11,9 10,0 5 3 NE 1018,8 20 0,0
19.04.2018 05:00:00 12,9 9,5 8 4 NNE 1019,2 20 -
19.04.2018 04:00:00 13,1 9,9 5 3 NNE 1019,6 20 0,0
19.04.2018 03:00:00 13,3 10,3 8 4 NE 1020,2 20 0,0
19.04.2018 02:00:00 14,6 9,8 9 5 N 1020,8 20 -
19.04.2018 01:00:00 16,2 9,4 9 5 NNW 1020,8 20 0,0
19.04.2018 00:00:00 15,9 10,6 5 3 WNW 1020,7 20 0,0
18.04.2018 23:00:00 17,0 11,0 9 5 NW 1020,4 20 -
18.04.2018 22:00:00 18,0 12,2 9 5 WNW 1019,6 20 0,0
18.04.2018 21:00:00 19,7 10,9 9 5 SW 1019,2 20 0,0
18.04.2018 20:00:00 21,8 10,9 11 6 SW 1019,0 20 -
18.04.2018 19:00:00 23,7 11,1 15 8 SSW 1019,0 20 0,0
18.04.2018 18:00:00 25,2 11,0 16 9 SSW 1019,2 20 0,0
18.04.2018 17:00:00 25,7 10,7 16 9 S 1019,6 20 -
18.04.2018 16:00:00 26,3 12,4 11 6 S 1020,1 20 0,0
18.04.2018 15:00:00 25,8 10,4 5 3 ESE 1020,7 20 0,0
18.04.2018 14:00:00 24,4 9,9 9 5 E 1020,9 20 -
18.04.2018 13:00:00 22,8 11,2 11 6 E 1021,4 20 0,0
18.04.2018 12:00:00 21,0 10,5 9 5 ENE 1021,5 20 0,0
18.04.2018 11:00:00 18,5 10,8 11 6 ENE 1021,4 15 -
18.04.2018 10:00:00 15,4 10,0 9 5 NE 1021,2 20 0,0
18.04.2018 09:00:00 12,5 9,9 8 4 NE 1021,1 19 0,0
18.04.2018 08:00:00 10,6 9,2 8 4 NE 1021,2 8 -
18.04.2018 07:00:00 10,6 9,4 8 4 NE 1021,0 19 0,0
18.04.2018 06:00:00 11,0 9,7 9 5 NE 1021,2 16 0,0
18.04.2018 05:00:00 12,5 10,2 5 3 NNE 1021,4 18 -
18.04.2018 04:00:00 12,7 10,8 5 3 NE 1021,5 20 0,0
18.04.2018 03:00:00 14,4 11,0 5 3 SSW 1021,8 20 0,0
18.04.2018 02:00:00 14,1 11,3 4 2 NNE 1021,6 20 -
18.04.2018 01:00:00 15,0 11,0 5 3 NE 1021,6 20 0,0
18.04.2018 00:00:00 15,4 11,2 2 1 SSW 1021,6 20 0,0
17.04.2018 23:00:00 16,7 10,5 2 1 ENE 1021,6 20 -
17.04.2018 22:00:00 18,1 10,9 4 2 S 1021,2 20 0,0
17.04.2018 21:00:00 21,0 12,2 2 1 S 1021,0 20 0,0
17.04.2018 20:00:00 23,8 9,8 4 2 ESE 1020,8 20 -
17.04.2018 19:00:00 24,6 10,5 5 3 NW 1021,1 20 0,0
17.04.2018 18:00:00 24,9 9,6 9 5 WSW 1021,4 20 0,0
17.04.2018 17:00:00 24,4 9,5 11 6 SSW 1021,9 20 -
17.04.2018 16:00:00 23,7 8,5 8 4 E 1022,3 20 0,0
17.04.2018 15:00:00 22,9 8,9 8 4 ESE 1022,9 20 0,0
17.04.2018 14:00:00 21,8 9,7 13 7 E 1023,4 20 -
17.04.2018 13:00:00 20,6 9,8 13 7 E 1023,7 20 0,0
17.04.2018 12:00:00 18,6 10,9 8 4 E 1024,0 20 0,0
17.04.2018 11:00:00 15,9 9,6 4 2 NE 1024,2 14 -
17.04.2018 10:00:00 13,2 10,4 4 2 N 1024,0 20 0,0
17.04.2018 09:00:00 10,7 9,0 8 4 NNE 1023,5 20 0,0
17.04.2018 08:00:00 9,2 8,0 9 5 N 1023,0 3,0 -
17.04.2018 07:00:00 9,3 8,2 8 4 N 1022,6 20 0,0
17.04.2018 06:00:00 10,0 8,6 8 4 N 1022,5 20 0,0
17.04.2018 05:00:00 9,5 8,6 8 4 N 1022,3 16 -
17.04.2018 04:00:00 9,8 8,7 4 2 NNE 1022,6 14 0,0
17.04.2018 03:00:00 11,7 9,6 11 6 N 1022,9 20 0,0

tt = Température de l'air
td = dewpoint
ff = Vitesse du vent
dd = Direction du vent
ppp = reduced air pressure
vv = visibility
rr = Quantités de précipitations

stations d'obs. à proximité